Flag for Bolivia Weather past 2 weeks in Potosi, Bolivia

Now
55 °F

Light rain. Mostly cloudy.


Feels Like: 53 °F
Forecast: 35 / 50 °F
Wind: 9 mph from Northwest

Location: Cochabamba Airport

Current Time: Jan 26, 2015 at 1:16:32 AM

Latest Report: Jan 26, 2015 at 12:00 AM


Visibility: 4 mi

Pressure: 30.33 "Hg

Humidity: 77%

Dew point: 48 °F

Location of PotosiLocation

Historic Weather in Potosi — Graph

°F

Potosi temperature yesterday

Maximum temperature yesterday: 73 °F (at 2:00 PM)
Minimum temperature yesterday: 54 °F (at 8:00 AM)
Average temperature yesterday: 63 °F

Past Weeks' High & Low Weather Summary

 TemperatureHumidityPressure
High79 °F (Jan 14, 2:00 PM)100% (Jan 17, 6:00 AM)30.42 "Hg (Jan 17, 6:00 AM)
Low50 °F (Jan 12, 7:00 AM)29% (Jan 23, 5:00 PM)30.09 "Hg (Jan 13, 4:00 PM)
Average63 °F68%30.29 "Hg
* Reported Midnight between Jan 10 and Jan 11 — Midnight between Jan 25 and Jan 26, Potosi, Weather by CustomWeather, © 2014

Note: Actual official high and low records may vary slightly from our data, if they occured in-between our weather recording intervals... More about our weather records

Advertising

Potosi weather history for previous 24 hours

 ConditionsComfort  
Time TempWeatherWind HumidityBarometerVisibility
12:00 AM
Jan 26
55 °FLight rain. Mostly cloudy.9 mph77%30.33 "Hg4 mi
11:00 PM
Jan 25
57 °FLight rain. Mostly cloudy.12 mph72%30.33 "Hg4 mi
10:00 PM61 °FPartly cloudy.9 mph59%30.27 "HgN/A
9:00 PM66 °FPartly cloudy.21 mph49%30.21 "HgN/A
8:00 PM68 °FPartly cloudy.15 mph46%30.18 "HgN/A
7:00 PM68 °FBroken clouds.No wind49%30.12 "HgN/A
6:00 PM70 °FBroken clouds.6 mph46%30.12 "HgN/A
5:00 PM70 °FScattered clouds.No wind43%30.12 "HgN/A
4:00 PM70 °FSprinkles. Scattered clouds.8 mph46%30.12 "HgN/A
3:00 PM73 °FScattered clouds.9 mph38%30.15 "HgN/A
2:00 PM73 °FScattered clouds.6 mph41%30.18 "HgN/A
1:00 PM70 °FScattered clouds.No wind46%30.24 "HgN/A
12:00 PM66 °FScattered clouds.No wind52%30.27 "HgN/A
11:00 AM64 °FScattered clouds.No wind64%30.30 "HgN/A
10:00 AM61 °FBroken clouds.No wind68%30.33 "HgN/A
9:00 AM55 °FPartly sunny.5 mph82%30.33 "HgN/A
8:00 AM54 °FBroken clouds.6 mph88%30.33 "Hg5 mi
7:00 AM55 °FLight rain. More clouds than sun.6 mph88%30.33 "Hg4 mi
6:00 AM55 °FLight rain. Mostly cloudy.12 mph77%30.33 "Hg5 mi
5:00 AM55 °FLight rain. Partly cloudy.17 mph77%30.24 "Hg5 mi
4:00 AM61 °FPassing clouds.6 mph68%30.21 "HgN/A
3:00 AM61 °FPassing clouds.3 mph68%30.21 "HgN/A
2:00 AM63 °FThunderstorms. Passing clouds.3 mph64%30.21 "HgN/A
1:00 AM63 °FPassing clouds.3 mph68%30.24 "HgN/A
Weather by CustomWeather, © 2014

See weather overviewHow to use our weather pages